Weather History for Farmingdale, NY

Change the Weather History Date:

Monday, February 17, 2014

  Actual Average Record
Temperature  
Mean Temperature 23 °F -  
Max Temperature 30 °F 39 °F 57 °F (2006)
Min Temperature 16 °F 26 °F 16 °F (2014)
Degree Days  
Heating Degree Days 42    
Moisture  
Dew Point 3 °F    
Average Humidity 47    
Maximum Humidity 65    
Minimum Humidity 27    
Precipitation  
Precipitation 0.00 in - - ()
Sea Level Pressure  
Sea Level Pressure 30.31 in    
Wind  
Wind Speed 7 mph (NNW)    
Max Wind Speed 14 mph    
Max Gust Speed 23 mph    
Visibility 10 miles    
Events      
Averages and records for this station are not official NWS values.
T = Trace of Precipitation, MM = Missing Value Source: NWS Daily Summary

Daily Weather History Graph

Daily Weather History Graph

Search for Another Location

Airport:

Trip Planner

Search our weather history database for the weather conditions in past years. The results will help you decide how hot, cold, wet, or windy it might be!

Date:

Astronomy

Feb. 17, 2014 Rise Set
Actual Time 6:44 AM EST 5:30 PM EST
Civil Twilight 6:17 AM EST 5:58 PM EST
Nautical Twilight 5:45 AM EST 6:30 PM EST
Astronomical Twilight 5:13 AM EST 7:02 PM EST
Moon 8:24 PM EST (2/17) 7:43 AM EST (2/17)
Length of Visible Light 11h 41m
Length of Day
10h 45m
Waning Gibbous, 93% of the Moon is Illuminated
Feb 17
Waning Gibbous
Feb 22
Last Quarter
Mar 1
New
Mar 8
First Quarter
Mar 16
Full

Hourly Weather History & Observations

Time (EST) Temp. Windchill Dew Point Humidity Pressure Visibility Wind Dir Wind Speed Gust Speed Precip Events Conditions
12:53 AM 19.9 °F 9.3 °F 7.0 °F 57% 30.12 in 10.0 mi NNW 9.2 mph 18.4 mph N/A   Clear
1:53 AM 19.0 °F 10.0 °F 7.0 °F 59% 30.15 in 10.0 mi NW 6.9 mph - N/A   Clear
2:53 AM 18.0 °F 6.1 °F 7.0 °F 62% 30.17 in 10.0 mi NW 10.4 mph - N/A   Clear
3:53 AM 18.0 °F 11.1 °F 6.1 °F 60% 30.19 in 10.0 mi NW 4.6 mph - N/A   Clear
4:53 AM 17.1 °F 10.0 °F 6.1 °F 62% 30.22 in 10.0 mi WNW 4.6 mph - N/A   Clear
5:53 AM 16.0 °F 8.8 °F 6.1 °F 65% 30.26 in 10.0 mi WNW 4.6 mph - N/A   Clear
6:53 AM 16.0 °F 7.4 °F 5.0 °F 62% 30.27 in 10.0 mi WNW 5.8 mph - N/A   Clear
7:53 AM 18.0 °F 8.7 °F 3.9 °F 54% 30.31 in 10.0 mi NNW 6.9 mph - N/A   Clear
8:53 AM 21.0 °F 8.1 °F 3.0 °F 46% 30.32 in 10.0 mi NNW 13.8 mph 19.6 mph N/A   Clear
9:53 AM 21.0 °F 8.6 °F -0.0 °F 40% 30.35 in 10.0 mi North 12.7 mph 23.0 mph N/A   Clear
10:53 AM 24.1 °F 12.5 °F -0.9 °F 34% 30.38 in 10.0 mi NNW 12.7 mph 17.3 mph N/A   Clear
11:53 AM 26.1 °F 16.8 °F -2.0 °F 30% 30.37 in 10.0 mi NNW 9.2 mph 19.6 mph N/A   Clear
12:53 PM 27.0 °F 18.7 °F -0.9 °F 30% 30.35 in 10.0 mi NW 8.1 mph - N/A   Clear
1:53 PM 28.9 °F 19.8 °F -0.9 °F 28% 30.35 in 10.0 mi North 10.4 mph - N/A   Clear
2:53 PM 30.0 °F 21.7 °F -0.0 °F 28% 30.35 in 10.0 mi North 9.2 mph - N/A   Clear
3:53 PM 30.9 °F 23.5 °F -0.0 °F 27% 30.36 in 10.0 mi NNW 8.1 mph - N/A   Clear
4:53 PM 30.0 °F 23.2 °F -0.9 °F 27% 30.36 in 10.0 mi NNW 6.9 mph - N/A   Clear
5:53 PM 28.0 °F - 1.0 °F 31% 30.38 in 10.0 mi Calm Calm - N/A   Clear
6:53 PM 24.1 °F - 5.0 °F 44% 30.38 in 10.0 mi Calm Calm - N/A   Clear
7:53 PM 21.0 °F - 5.0 °F 50% 30.37 in 10.0 mi Calm Calm - N/A   Clear
8:53 PM 18.0 °F - 5.0 °F 57% 30.35 in 10.0 mi Calm Calm - N/A   Clear
9:53 PM 18.0 °F - 7.0 °F 62% 30.35 in 10.0 mi Calm Calm - N/A   Clear
10:53 PM 19.0 °F - 7.0 °F 59% 30.34 in 10.0 mi Calm Calm - N/A   Clear
11:53 PM 19.0 °F - 8.1 °F 62% 30.36 in 10.0 mi Calm Calm - N/A   Clear